owner,sensor,date,latitude,longitude,vertical_datum,direction_of_sea_water_velocity,sea_water_speed,upward_sea_water_velocity,qcFlag 
ADCP,ioos:station:wmo:42387:1,2015-11-01T00:10:00Z,28.2670,-88.3990,79.7,253.0,46.3,-15.2,'1111122,1111122,1111122' 
ADCP,ioos:station:wmo:42387:1,2015-11-01T01:10:00Z,28.2670,-88.3990,79.7,253.0,47.5,-12.5,'1111122,1111122,1111122' 
ADCP,ioos:station:wmo:42387:1,2015-11-01T01:50:00Z,28.2670,-88.3990,79.7,257.0,46.9,-11.7,'1111122,1111122,1111122' 
ADCP,ioos:station:wmo:42387:1,2015-11-01T02:30:00Z,28.2670,-88.3990,79.7,260.0,47.1,-11.4,'1111122,1111122,1111122' 
ADCP,ioos:station:wmo:42387:1,2015-11-01T03:30:00Z,28.2670,-88.3990,79.7,266.0,45.1,-11.6,'1111122,1111122,1111122' 
ADCP,ioos:station:wmo:42387:1,2015-11-01T04:30:00Z,28.2670,-88.3990,79.7,267.0,44.0,-11.1,'1111122,1111122,1111122' 
ADCP,ioos:station:wmo:42387:1,2015-11-01T07:30:00Z,28.2670,-88.3990,79.7,263.0,42.3,-9.8,'1111122,1111122,1111122' 
ADCP,ioos:station:wmo:42387:1,2015-11-01T08:30:00Z,28.2670,-88.3990,79.7,263.0,42.5,-10.3,'1111122,1111122,1111122' 
ADCP,ioos:station:wmo:42387:1,2015-11-01T09:30:00Z,28.2670,-88.3990,79.7,264.0,39.3,-11.1,'1111122,1111122,1111122' 
ADCP,ioos:station:wmo:42387:1,2015-11-01T10:30:00Z,28.2670,-88.3990,79.7,268.0,36.6,-13.3,'1111122,1111122,1111122' 
ADCP,ioos:station:wmo:42387:1,2015-11-01T11:30:00Z,28.2670,-88.3990,79.7,270.0,34.1,-14.4,'1111122,1111122,1111122' 
ADCP,ioos:station:wmo:42387:1,2015-11-01T12:30:00Z,28.2670,-88.3990,79.7,275.0,33.6,-14.3,'1111122,1111122,1111122' 
ADCP,ioos:station:wmo:42387:1,2015-11-01T13:30:00Z,28.2670,-88.3990,79.7,266.0,32.5,-13.0,'1111122,1111122,1111122' 
ADCP,ioos:station:wmo:42387:1,2015-11-01T14:30:00Z,28.2670,-88.3990,79.7,257.0,31.3,-13.9,'1111122,1111122,1111122' 
ADCP,ioos:station:wmo:42387:1,2015-11-01T15:30:00Z,28.2670,-88.3990,79.7,251.0,31.2,-14.6,'1111122,1111122,1111122' 
ADCP,ioos:station:wmo:42387:1,2015-11-01T16:10:00Z,28.2670,-88.3990,79.7,244.0,33.3,-12.6,'1111122,1111122,1111122' 
ADCP,ioos:station:wmo:42387:1,2015-11-01T17:30:00Z,28.2670,-88.3990,79.7,234.0,36.6,-11.3,'1111122,1111122,1111122' 
ADCP,ioos:station:wmo:42387:1,2015-11-01T18:30:00Z,28.2670,-88.3990,79.7,232.0,37.6,-11.8,'1111122,1111122,1111122' 
ADCP,ioos:station:wmo:42387:1,2015-11-01T19:30:00Z,28.2670,-88.3990,79.7,229.0,41.8,-11.2,'1111122,1111122,1111122' 
ADCP,ioos:station:wmo:42387:1,2015-11-01T20:10:00Z,28.2670,-88.3990,79.7,232.0,46.6,-11.5,'1111122,1111122,1111122' 
ADCP,ioos:station:wmo:42387:1,2015-11-01T21:30:00Z,28.2670,-88.3990,79.7,235.0,49.5,-11.6,'1111122,1111122,1111122' 
ADCP,ioos:station:wmo:42387:1,2015-11-01T22:30:00Z,28.2670,-88.3990,79.7,238.0,50.7,-11.3,'1111122,1111122,1111122' 
ADCP,ioos:station:wmo:42387:1,2015-11-01T23:30:00Z,28.2670,-88.3990,79.7,245.0,51.0,-12.7,'1111122,1111122,1111122' 
ADCP,ioos:station:wmo:42387:1,2015-11-02T00:30:00Z,28.2670,-88.3990,79.7,249.0,51.2,-13.1,'1111122,1111122,1111122' 
ADCP,ioos:station:wmo:42387:1,2015-11-02T01:30:00Z,28.2670,-88.3990,79.7,253.0,48.2,-14.1,'1111122,1111122,1111122' 
ADCP,ioos:station:wmo:42387:1,2015-11-02T02:30:00Z,28.2670,-88.3990,79.7,259.0,48.8,-14.0,'1111122,1111122,1111122' 
ADCP,ioos:station:wmo:42387:1,2015-11-02T03:30:00Z,28.2670,-88.3990,79.7,262.0,48.6,-14.2,'1111122,1111122,1111122' 
ADCP,ioos:station:wmo:42387:1,2015-11-02T04:30:00Z,28.2670,-88.3990,79.7,263.0,47.4,-13.3,'1111122,1111122,1111122' 
ADCP,ioos:station:wmo:42387:1,2015-11-02T05:30:00Z,28.2670,-88.3990,79.7,266.0,45.2,-11.8,'1111122,1111122,1111122' 
ADCP,ioos:station:wmo:42387:1,2015-11-02T06:30:00Z,28.2670,-88.3990,79.7,264.0,41.9,-10.5,'1111122,1111122,1111122' 
ADCP,ioos:station:wmo:42387:1,2015-11-02T07:30:00Z,28.2670,-88.3990,79.7,264.0,41.9,-10.8,'1111122,1111122,1111122' 
ADCP,ioos:station:wmo:42387:1,2015-11-02T08:30:00Z,28.2670,-88.3990,79.7,267.0,39.1,-11.5,'1111122,1111122,1111122' 
ADCP,ioos:station:wmo:42387:1,2015-11-02T09:30:00Z,28.2670,-88.3990,79.7,268.0,38.1,-11.7,'1111122,1111122,1111122' 
ADCP,ioos:station:wmo:42387:1,2015-11-02T10:30:00Z,28.2670,-88.3990,79.7,265.0,37.6,-12.7,'1111122,1111122,1111122' 
ADCP,ioos:station:wmo:42387:1,2015-11-02T11:30:00Z,28.2670,-88.3990,79.7,269.0,36.5,-15.2,'1111122,1111122,1111122' 
ADCP,ioos:station:wmo:42387:1,2015-11-02T12:30:00Z,28.2670,-88.3990,79.7,266.0,30.9,-15.4,'1111122,1111122,1111122' 
ADCP,ioos:station:wmo:42387:1,2015-11-02T13:30:00Z,28.2670,-88.3990,79.7,261.0,28.9,-15.8,'1111122,1111122,1111122' 
ADCP,ioos:station:wmo:42387:1,2015-11-02T14:30:00Z,28.2670,-88.3990,79.7,252.0,30.5,-14.4,'1111122,1111122,1111122' 
ADCP,ioos:station:wmo:42387:1,2015-11-02T15:30:00Z,28.2670,-88.3990,79.7,244.0,26.2,-13.4,'1111122,1111122,1111122' 
ADCP,ioos:station:wmo:42387:1,2015-11-02T16:10:00Z,28.2670,-88.3990,79.7,237.0,25.7,-11.3,'1111122,1111122,1111122' 
ADCP,ioos:station:wmo:42387:1,2015-11-02T17:30:00Z,28.2670,-88.3990,79.7,233.0,24.0,-12.2,'1111122,1111122,1111122' 
ADCP,ioos:station:wmo:42387:1,2015-11-02T18:30:00Z,28.2670,-88.3990,79.7,228.0,27.9,-12.6,'1111122,1111122,1111122' 
ADCP,ioos:station:wmo:42387:1,2015-11-02T19:30:00Z,28.2670,-88.3990,79.7,233.0,34.9,-13.1,'1111122,1111122,1111122' 
ADCP,ioos:station:wmo:42387:1,2015-11-02T20:30:00Z,28.2670,-88.3990,79.7,229.0,43.9,-12.8,'1111122,1111122,1111122' 
ADCP,ioos:station:wmo:42387:1,2015-11-02T21:30:00Z,28.2670,-88.3990,79.7,232.0,46.9,-13.1,'1111122,1111122,1111122' 
ADCP,ioos:station:wmo:42387:1,2015-11-02T23:30:00Z,28.2670,-88.3990,79.7,237.0,48.4,-12.2,'1111122,1111122,1111122' 
ADCP,ioos:station:wmo:42387:1,2015-11-03T00:10:00Z,28.2670,-88.3990,79.7,240.0,48.7,-10.9,'1111122,1111122,1111122' 
ADCP,ioos:station:wmo:42387:1,2015-11-03T01:30:00Z,28.2670,-88.3990,79.7,251.0,51.3,-12.7,'1111122,1111122,1111122' 
ADCP,ioos:station:wmo:42387:1,2015-11-03T02:30:00Z,28.2670,-88.3990,79.7,256.0,46.0,-12.4,'1111122,1111122,1111122' 
ADCP,ioos:station:wmo:42387:1,2015-11-03T03:30:00Z,28.2670,-88.3990,79.7,261.0,45.3,-13.6,'1111122,1111122,1111122' 
ADCP,ioos:station:wmo:42387:1,2015-11-03T04:30:00Z,28.2670,-88.3990,79.7,265.0,43.9,-12.5,'1111122,1111122,1111122' 
ADCP,ioos:station:wmo:42387:1,2015-11-03T05:30:00Z,28.2670,-88.3990,79.7,269.0,41.1,-13.8,'1111122,1111122,1111122' 
ADCP,ioos:station:wmo:42387:1,2015-11-03T06:30:00Z,28.2670,-88.3990,79.7,268.0,36.8,-13.3,'1111122,1111122,1111122' 
ADCP,ioos:station:wmo:42387:1,2015-11-03T07:30:00Z,28.2670,-88.3990,79.7,265.0,36.5,-12.7,'1111122,1111122,1111122' 
ADCP,ioos:station:wmo:42387:1,2015-11-03T08:30:00Z,28.2670,-88.3990,79.7,270.0,34.6,-12.9,'1111122,1111122,1111122' 
ADCP,ioos:station:wmo:42387:1,2015-11-03T09:30:00Z,28.2670,-88.3990,79.7,264.0,32.7,-12.9,'1111122,1111122,1111122' 
ADCP,ioos:station:wmo:42387:1,2015-11-03T10:30:00Z,28.2670,-88.3990,79.7,265.0,31.3,-13.3,'1111122,1111122,1111122' 
ADCP,ioos:station:wmo:42387:1,2015-11-03T11:30:00Z,28.2670,-88.3990,79.7,263.0,29.5,-13.9,'1111122,1111122,1111122' 
ADCP,ioos:station:wmo:42387:1,2015-11-03T12:30:00Z,28.2670,-88.3990,79.7,254.0,24.5,-13.0,'1111122,1111122,1111122' 
ADCP,ioos:station:wmo:42387:1,2015-11-03T13:30:00Z,28.2670,-88.3990,79.7,245.0,20.9,-12.3,'1111122,1111122,1111122' 
ADCP,ioos:station:wmo:42387:1,2015-11-03T14:30:00Z,28.2670,-88.3990,79.7,229.0,24.4,-10.0,'1111122,1111122,1111122' 
ADCP,ioos:station:wmo:42387:1,2015-11-03T15:30:00Z,28.2670,-88.3990,79.7,226.0,26.8,-9.5,'1111122,1111122,1111122' 
ADCP,ioos:station:wmo:42387:1,2015-11-03T16:30:00Z,28.2670,-88.3990,79.7,227.0,26.0,-10.5,'1111122,1111122,1111122' 
ADCP,ioos:station:wmo:42387:1,2015-11-03T17:30:00Z,28.2670,-88.3990,79.7,226.0,26.0,-10.7,'1111122,1111122,1111122' 
ADCP,ioos:station:wmo:42387:1,2015-11-03T18:30:00Z,28.2670,-88.3990,79.7,228.0,26.3,-11.5,'1111122,1111122,1111122' 
ADCP,ioos:station:wmo:42387:1,2015-11-03T19:30:00Z,28.2670,-88.3990,79.7,227.0,29.5,-12.4,'1111122,1111122,1111122' 
ADCP,ioos:station:wmo:42387:1,2015-11-03T20:30:00Z,28.2670,-88.3990,79.7,221.0,35.7,-10.5,'1111122,1111122,1111122' 
ADCP,ioos:station:wmo:42387:1,2015-11-03T21:30:00Z,28.2670,-88.3990,79.7,223.0,40.9,-10.8,'1111122,1111122,1111122' 
ADCP,ioos:station:wmo:42387:1,2015-11-03T22:30:00Z,28.2670,-88.3990,79.7,225.0,42.0,-11.8,'1111122,1111122,1111122' 
ADCP,ioos:station:wmo:42387:1,2015-11-03T23:30:00Z,28.2670,-88.3990,79.7,233.0,44.6,-12.5,'1111122,1111122,1111122' 
ADCP,ioos:station:wmo:42387:1,2015-11-04T00:30:00Z,28.2670,-88.3990,79.7,239.0,47.7,-11.5,'1111122,1111122,1111122' 
ADCP,ioos:station:wmo:42387:1,2015-11-04T01:30:00Z,28.2670,-88.3990,79.7,250.0,47.7,-14.5,'1111122,1111122,1111122' 
ADCP,ioos:station:wmo:42387:1,2015-11-04T02:30:00Z,28.2670,-88.3990,79.7,254.0,47.5,-13.6,'1111122,1111122,1111122' 
ADCP,ioos:station:wmo:42387:1,2015-11-04T03:30:00Z,28.2670,-88.3990,79.7,253.0,47.6,-12.7,'1111122,1111122,1111122' 
ADCP,ioos:station:wmo:42387:1,2015-11-04T04:30:00Z,28.2670,-88.3990,79.7,254.0,46.0,-12.0,'1111122,1111122,1111122' 
ADCP,ioos:station:wmo:42387:1,2015-11-04T06:30:00Z,28.2670,-88.3990,79.7,261.0,40.7,-14.6,'1111122,1111122,1111122' 
ADCP,ioos:station:wmo:42387:1,2015-11-04T07:30:00Z,28.2670,-88.3990,79.7,259.0,36.7,-12.6,'1111122,1111122,1111122' 
ADCP,ioos:station:wmo:42387:1,2015-11-04T08:30:00Z,28.2670,-88.3990,79.7,259.0,34.9,-13.1,'1111122,1111122,1111122' 
ADCP,ioos:station:wmo:42387:1,2015-11-04T09:30:00Z,28.2670,-88.3990,79.7,255.0,31.8,-12.7,'1111122,1111122,1111122' 
ADCP,ioos:station:wmo:42387:1,2015-11-04T10:30:00Z,28.2670,-88.3990,79.7,251.0,27.9,-13.2,'1111122,1111122,1111122' 
ADCP,ioos:station:wmo:42387:1,2015-11-04T11:30:00Z,28.2670,-88.3990,79.7,243.0,30.5,-12.3,'1111122,1111122,1111122' 
ADCP,ioos:station:wmo:42387:1,2015-11-04T12:30:00Z,28.2670,-88.3990,79.7,240.0,24.7,-10.9,'1111122,1111122,1111122' 
ADCP,ioos:station:wmo:42387:1,2015-11-04T13:30:00Z,28.2670,-88.3990,79.7,213.0,24.0,-7.5,'1111122,1111122,1111122' 
ADCP,ioos:station:wmo:42387:1,2015-11-04T14:30:00Z,28.2670,-88.3990,79.7,215.0,24.9,-8.1,'1111122,1111122,1111122' 
ADCP,ioos:station:wmo:42387:1,2015-11-04T15:30:00Z,28.2670,-88.3990,79.7,218.0,26.0,-8.8,'1111122,1111122,1111122' 
ADCP,ioos:station:wmo:42387:1,2015-11-04T17:30:00Z,28.2670,-88.3990,79.7,226.0,27.1,-10.8,'1111122,1111122,1111122' 
ADCP,ioos:station:wmo:42387:1,2015-11-04T18:30:00Z,28.2670,-88.3990,79.7,219.0,26.8,-10.4,'1111122,1111122,1111122' 
ADCP,ioos:station:wmo:42387:1,2015-11-04T20:30:00Z,28.2670,-88.3990,79.7,213.0,38.9,-11.1,'1111122,1111122,1111122' 
ADCP,ioos:station:wmo:42387:1,2015-11-04T21:30:00Z,28.2670,-88.3990,79.7,218.0,44.2,-9.9,'1111122,1111122,1111122' 
ADCP,ioos:station:wmo:42387:1,2015-11-04T22:30:00Z,28.2670,-88.3990,79.7,219.0,44.1,-11.5,'1111122,1111122,1111122' 
ADCP,ioos:station:wmo:42387:1,2015-11-04T23:30:00Z,28.2670,-88.3990,79.7,219.0,44.5,-11.6,'1111122,1111122,1111122' 
ADCP,ioos:station:wmo:42387:1,2015-11-05T00:30:00Z,28.2670,-88.3990,79.7,227.0,44.7,-12.5,'1111122,1111122,1111122' 
ADCP,ioos:station:wmo:42387:1,2015-11-05T01:30:00Z,28.2670,-88.3990,79.7,234.0,44.5,-13.0,'1111122,1111122,1111122' 
ADCP,ioos:station:wmo:42387:1,2015-11-05T02:30:00Z,28.2670,-88.3990,79.7,239.0,44.6,-14.1,'1111122,1111122,1111122' 
ADCP,ioos:station:wmo:42387:1,2015-11-05T03:30:00Z,28.2670,-88.3990,79.7,240.0,44.0,-13.4,'1111122,1111122,1111122' 
ADCP,ioos:station:wmo:42387:1,2015-11-05T04:30:00Z,28.2670,-88.3990,79.7,243.0,43.1,-13.5,'1111122,1111122,1111122' 
ADCP,ioos:station:wmo:42387:1,2015-11-05T05:30:00Z,28.2670,-88.3990,79.7,247.0,40.7,-15.1,'1111122,1111122,1111122' 
ADCP,ioos:station:wmo:42387:1,2015-11-05T06:30:00Z,28.2670,-88.3990,79.7,248.0,38.0,-14.4,'1111122,1111122,1111122' 
ADCP,ioos:station:wmo:42387:1,2015-11-05T07:30:00Z,28.2670,-88.3990,79.7,248.0,34.9,-13.0,'1111122,1111122,1111122' 
ADCP,ioos:station:wmo:42387:1,2015-11-05T08:30:00Z,28.2670,-88.3990,79.7,248.0,33.1,-14.1,'1111122,1111122,1111122' 
ADCP,ioos:station:wmo:42387:1,2015-11-05T09:30:00Z,28.2670,-88.3990,79.7,251.0,32.4,-13.7,'1111122,1111122,1111122' 
ADCP,ioos:station:wmo:42387:1,2015-11-05T10:30:00Z,28.2670,-88.3990,79.7,254.0,30.6,-15.1,'1111122,1111122,1111122' 
ADCP,ioos:station:wmo:42387:1,2015-11-05T11:30:00Z,28.2670,-88.3990,79.7,254.0,28.8,-14.9,'1111122,1111122,1111122' 
ADCP,ioos:station:wmo:42387:1,2015-11-05T12:30:00Z,28.2670,-88.3990,79.7,244.0,23.1,-15.9,'1111122,1111122,1111122' 
ADCP,ioos:station:wmo:42387:1,2015-11-05T13:30:00Z,28.2670,-88.3990,79.7,227.0,24.5,-13.2,'1111122,1111122,1111122' 
ADCP,ioos:station:wmo:42387:1,2015-11-05T14:30:00Z,28.2670,-88.3990,79.7,220.0,23.9,-13.1,'1111122,1111122,1111122' 
ADCP,ioos:station:wmo:42387:1,2015-11-05T15:30:00Z,28.2670,-88.3990,79.7,221.0,26.6,-12.1,'1111122,1111122,1111122' 
ADCP,ioos:station:wmo:42387:1,2015-11-05T16:30:00Z,28.2670,-88.3990,79.7,228.0,27.1,-13.0,'1111122,1111122,1111122' 
ADCP,ioos:station:wmo:42387:1,2015-11-05T17:30:00Z,28.2670,-88.3990,79.7,232.0,31.4,-13.0,'1111122,1111122,1111122' 
ADCP,ioos:station:wmo:42387:1,2015-11-05T18:30:00Z,28.2670,-88.3990,79.7,231.0,32.4,-13.4,'1111122,1111122,1111122' 
ADCP,ioos:station:wmo:42387:1,2015-11-05T19:30:00Z,28.2670,-88.3990,79.7,235.0,35.8,-14.1,'1111122,1111122,1111122' 
ADCP,ioos:station:wmo:42387:1,2015-11-05T20:30:00Z,28.2670,-88.3990,79.7,226.0,34.9,-12.7,'1111122,1111122,1111122' 
ADCP,ioos:station:wmo:42387:1,2015-11-05T21:30:00Z,28.2670,-88.3990,79.7,234.0,34.1,-16.2,'1111122,1111122,1111122' 
ADCP,ioos:station:wmo:42387:1,2015-11-05T22:30:00Z,28.2670,-88.3990,79.7,226.0,37.6,-15.3,'1111122,1111122,1111122' 
ADCP,ioos:station:wmo:42387:1,2015-11-05T23:30:00Z,28.2670,-88.3990,79.7,232.0,42.2,-14.9,'1111122,1111122,1111122' 
ADCP,ioos:station:wmo:42387:1,2015-11-06T00:30:00Z,28.2670,-88.3990,79.7,240.0,44.4,-17.0,'1111122,1111122,1111122' 
ADCP,ioos:station:wmo:42387:1,2015-11-06T01:30:00Z,28.2670,-88.3990,79.7,236.0,45.8,-13.9,'1111122,1111122,1111122' 
ADCP,ioos:station:wmo:42387:1,2015-11-06T02:30:00Z,28.2670,-88.3990,79.7,238.0,47.7,-14.3,'1111122,1111122,1111122' 
ADCP,ioos:station:wmo:42387:1,2015-11-06T03:30:00Z,28.2670,-88.3990,79.7,244.0,47.4,-14.2,'1111122,1111122,1111122' 
ADCP,ioos:station:wmo:42387:1,2015-11-06T04:30:00Z,28.2670,-88.3990,79.7,247.0,47.9,-14.1,'1111122,1111122,1111122' 
ADCP,ioos:station:wmo:42387:1,2015-11-06T05:30:00Z,28.2670,-88.3990,79.7,251.0,45.6,-14.6,'1111122,1111122,1111122' 
ADCP,ioos:station:wmo:42387:1,2015-11-06T06:30:00Z,28.2670,-88.3990,79.7,253.0,43.6,-14.6,'1111122,1111122,1111122' 
ADCP,ioos:station:wmo:42387:1,2015-11-06T07:30:00Z,28.2670,-88.3990,79.7,256.0,41.8,-15.3,'1111122,1111122,1111122' 
ADCP,ioos:station:wmo:42387:1,2015-11-06T08:30:00Z,28.2670,-88.3990,79.7,256.0,39.4,-15.2,'1111122,1111122,1111122' 
ADCP,ioos:station:wmo:42387:1,2015-11-06T09:30:00Z,28.2670,-88.3990,79.7,255.0,35.3,-13.7,'1111122,1111122,1111122' 
ADCP,ioos:station:wmo:42387:1,2015-11-06T10:30:00Z,28.2670,-88.3990,79.7,253.0,35.3,-15.3,'1111122,1111122,1111122' 
ADCP,ioos:station:wmo:42387:1,2015-11-06T12:30:00Z,28.2670,-88.3990,79.7,245.0,29.6,-15.1,'1111122,1111122,1111122' 
ADCP,ioos:station:wmo:42387:1,2015-11-06T14:30:00Z,28.2670,-88.3990,79.7,227.0,26.3,-12.9,'1111122,1111122,1111122' 
ADCP,ioos:station:wmo:42387:1,2015-11-06T15:30:00Z,28.2670,-88.3990,79.7,226.0,26.5,-13.5,'1111122,1111122,1111122' 
ADCP,ioos:station:wmo:42387:1,2015-11-06T16:30:00Z,28.2670,-88.3990,79.7,235.0,26.8,-15.1,'1111122,1111122,1111122' 
ADCP,ioos:station:wmo:42387:1,2015-11-06T17:30:00Z,28.2670,-88.3990,79.7,233.0,27.6,-14.7,'1111122,1111122,1111122' 
ADCP,ioos:station:wmo:42387:1,2015-11-06T18:30:00Z,28.2670,-88.3990,79.7,230.0,30.5,-14.9,'1111122,1111122,1111122' 
ADCP,ioos:station:wmo:42387:1,2015-11-06T19:30:00Z,28.2670,-88.3990,79.7,223.0,34.3,-13.9,'1111122,1111122,1111122' 
ADCP,ioos:station:wmo:42387:1,2015-11-06T20:30:00Z,28.2670,-88.3990,79.7,223.0,32.7,-15.2,'1111122,1111122,1111122' 
ADCP,ioos:station:wmo:42387:1,2015-11-06T21:30:00Z,28.2670,-88.3990,79.7,224.0,32.4,-16.8,'1111122,1111122,1111122' 
ADCP,ioos:station:wmo:42387:1,2015-11-06T22:30:00Z,28.2670,-88.3990,79.7,231.0,36.5,-16.6,'1111122,1111122,1111122' 
ADCP,ioos:station:wmo:42387:1,2015-11-06T23:30:00Z,28.2670,-88.3990,79.7,231.0,43.1,-14.9,'1111122,1111122,1111122' 
ADCP,ioos:station:wmo:42387:1,2015-11-07T00:30:00Z,28.2670,-88.3990,79.7,237.0,46.4,-17.1,'1111122,1111122,1111122' 
ADCP,ioos:station:wmo:42387:1,2015-11-07T01:30:00Z,28.2670,-88.3990,79.7,246.0,47.5,-16.9,'1111122,1111122,1111122' 
ADCP,ioos:station:wmo:42387:1,2015-11-07T02:30:00Z,28.2670,-88.3990,79.7,248.0,48.7,-16.1,'1111122,1111122,1111122' 
ADCP,ioos:station:wmo:42387:1,2015-11-07T03:30:00Z,28.2670,-88.3990,79.7,254.0,45.5,-16.0,'1111122,1111122,1111122' 
ADCP,ioos:station:wmo:42387:1,2015-11-07T04:30:00Z,28.2670,-88.3990,79.7,260.0,40.8,-16.1,'1111122,1111122,1111122' 
ADCP,ioos:station:wmo:42387:1,2015-11-07T05:30:00Z,28.2670,-88.3990,79.7,258.0,34.6,-13.0,'1111122,1111122,1111122' 
ADCP,ioos:station:wmo:42387:1,2015-11-07T06:30:00Z,28.2670,-88.3990,79.7,252.0,30.9,-13.0,'1111122,1111122,1111122' 
ADCP,ioos:station:wmo:42387:1,2015-11-07T07:30:00Z,28.2670,-88.3990,79.7,249.0,29.6,-11.8,'1111122,1111122,1111122' 
ADCP,ioos:station:wmo:42387:1,2015-11-07T08:30:00Z,28.2670,-88.3990,79.7,247.0,25.6,-12.3,'1111122,1111122,1111122' 
ADCP,ioos:station:wmo:42387:1,2015-11-07T09:30:00Z,28.2670,-88.3990,79.7,241.0,25.8,-12.0,'1111122,1111122,1111122' 
ADCP,ioos:station:wmo:42387:1,2015-11-07T10:30:00Z,28.2670,-88.3990,79.7,236.0,28.9,-12.2,'1111122,1111122,1111122' 
ADCP,ioos:station:wmo:42387:1,2015-11-07T11:30:00Z,28.2670,-88.3990,79.7,246.0,25.7,-13.7,'1111122,1111122,1111122' 
ADCP,ioos:station:wmo:42387:1,2015-11-07T12:30:00Z,28.2670,-88.3990,79.7,227.0,23.6,-11.1,'1111122,1111122,1111122' 
ADCP,ioos:station:wmo:42387:1,2015-11-07T13:30:00Z,28.2670,-88.3990,79.7,223.0,28.9,-12.4,'1111122,1111122,1111122' 
ADCP,ioos:station:wmo:42387:1,2015-11-07T14:30:00Z,28.2670,-88.3990,79.7,225.0,27.3,-15.0,'1111122,1111122,1111122' 
ADCP,ioos:station:wmo:42387:1,2015-11-07T15:30:00Z,28.2670,-88.3990,79.7,221.0,29.4,-14.1,'1111122,1111122,1111122' 
ADCP,ioos:station:wmo:42387:1,2015-11-07T16:30:00Z,28.2670,-88.3990,79.7,221.0,28.8,-14.2,'1111122,1111122,1111122' 
ADCP,ioos:station:wmo:42387:1,2015-11-07T17:30:00Z,28.2670,-88.3990,79.7,239.0,26.0,-16.8,'1111122,1111122,1111122' 
ADCP,ioos:station:wmo:42387:1,2015-11-07T18:30:00Z,28.2670,-88.3990,79.7,236.0,27.4,-16.2,'1111122,1111122,1111122' 
ADCP,ioos:station:wmo:42387:1,2015-11-07T19:30:00Z,28.2670,-88.3990,79.7,231.0,27.7,-17.3,'1111122,1111122,1111122' 
ADCP,ioos:station:wmo:42387:1,2015-11-07T20:30:00Z,28.2670,-88.3990,79.7,238.0,31.4,-19.0,'1111122,1111122,1111122' 
ADCP,ioos:station:wmo:42387:1,2015-11-07T21:30:00Z,28.2670,-88.3990,79.7,238.0,31.4,-18.9,'1111122,1111122,1111122' 
ADCP,ioos:station:wmo:42387:1,2015-11-07T22:30:00Z,28.2670,-88.3990,79.7,229.0,32.1,-16.3,'1111122,1111122,1111122' 
ADCP,ioos:station:wmo:42387:1,2015-11-08T00:30:00Z,28.2670,-88.3990,79.7,247.0,37.1,-16.3,'1111122,1111122,1111122' 
ADCP,ioos:station:wmo:42387:1,2015-11-08T01:30:00Z,28.2670,-88.3990,79.7,245.0,35.9,-15.3,'1111122,1111122,1111122' 
ADCP,ioos:station:wmo:42387:1,2015-11-08T02:30:00Z,28.2670,-88.3990,79.7,245.0,33.6,-14.2,'1111122,1111122,1111122' 
ADCP,ioos:station:wmo:42387:1,2015-11-08T03:30:00Z,28.2670,-88.3990,79.7,246.0,34.0,-15.5,'1111122,1111122,1111122' 
ADCP,ioos:station:wmo:42387:1,2015-11-08T05:30:00Z,28.2670,-88.3990,79.7,247.0,33.5,-14.9,'1111122,1111122,1111122' 
ADCP,ioos:station:wmo:42387:1,2015-11-08T06:30:00Z,28.2670,-88.3990,79.7,248.0,32.4,-15.9,'1111122,1111122,1111122' 
ADCP,ioos:station:wmo:42387:1,2015-11-08T07:30:00Z,28.2670,-88.3990,79.7,244.0,30.9,-14.6,'1111122,1111122,1111122' 
ADCP,ioos:station:wmo:42387:1,2015-11-08T08:30:00Z,28.2670,-88.3990,79.7,244.0,29.2,-14.1,'1111122,1111122,1111122' 
ADCP,ioos:station:wmo:42387:1,2015-11-08T09:30:00Z,28.2670,-88.3990,79.7,245.0,29.0,-14.7,'1111122,1111122,1111122' 
ADCP,ioos:station:wmo:42387:1,2015-11-08T10:30:00Z,28.2670,-88.3990,79.7,239.0,26.6,-13.7,'1111122,1111122,1111122' 
ADCP,ioos:station:wmo:42387:1,2015-11-08T11:10:00Z,28.2670,-88.3990,79.7,241.0,28.7,-15.0,'1111122,1111122,1111122' 
ADCP,ioos:station:wmo:42387:1,2015-11-08T12:30:00Z,28.2670,-88.3990,79.7,243.0,28.4,-16.7,'1111122,1111122,1111122' 
ADCP,ioos:station:wmo:42387:1,2015-11-08T13:30:00Z,28.2670,-88.3990,79.7,237.0,25.4,-14.3,'1111122,1111122,1111122' 
ADCP,ioos:station:wmo:42387:1,2015-11-08T14:30:00Z,28.2670,-88.3990,79.7,236.0,26.3,-15.3,'1111122,1111122,1111122' 
ADCP,ioos:station:wmo:42387:1,2015-11-08T15:30:00Z,28.2670,-88.3990,79.7,230.0,22.8,-15.1,'1111122,1111122,1111122' 
ADCP,ioos:station:wmo:42387:1,2015-11-08T16:30:00Z,28.2670,-88.3990,79.7,226.0,23.3,-15.0,'1111122,1111122,1111122' 
ADCP,ioos:station:wmo:42387:1,2015-11-08T17:30:00Z,28.2670,-88.3990,79.7,236.0,20.7,-17.5,'1111122,1111122,1111122' 
ADCP,ioos:station:wmo:42387:1,2015-11-08T18:30:00Z,28.2670,-88.3990,79.7,233.0,22.6,-17.3,'1111122,1111122,1111122' 
ADCP,ioos:station:wmo:42387:1,2015-11-08T19:30:00Z,28.2670,-88.3990,79.7,231.0,23.6,-16.8,'1111122,1111122,1111122' 
ADCP,ioos:station:wmo:42387:1,2015-11-08T20:30:00Z,28.2670,-88.3990,79.7,233.0,29.8,-16.8,'1111122,1111122,1111122' 
ADCP,ioos:station:wmo:42387:1,2015-11-08T21:30:00Z,28.2670,-88.3990,79.7,234.0,30.0,-15.3,'1111122,1111122,1111122' 
ADCP,ioos:station:wmo:42387:1,2015-11-08T22:30:00Z,28.2670,-88.3990,79.7,238.0,27.4,-15.4,'1111122,1111122,1111122' 
ADCP,ioos:station:wmo:42387:1,2015-11-08T23:30:00Z,28.2670,-88.3990,79.7,247.0,24.6,-12.3,'1111122,1111122,1111122' 
ADCP,ioos:station:wmo:42387:1,2015-11-09T00:30:00Z,28.2670,-88.3990,79.7,261.0,21.5,-15.2,'1111122,1111122,1111122' 
ADCP,ioos:station:wmo:42387:1,2015-11-09T01:30:00Z,28.2670,-88.3990,79.7,256.0,17.7,-11.8,'1111122,1111122,1111122' 
ADCP,ioos:station:wmo:42387:1,2015-11-09T02:30:00Z,28.2670,-88.3990,79.7,247.0,17.7,-9.4,'1111122,1111122,1111122' 
ADCP,ioos:station:wmo:42387:1,2015-11-09T03:30:00Z,28.2670,-88.3990,79.7,239.0,18.3,-8.0,'1111122,1111122,1111122' 
ADCP,ioos:station:wmo:42387:1,2015-11-09T04:30:00Z,28.2670,-88.3990,79.7,242.0,13.9,-9.4,'1111122,1111122,1111122' 
ADCP,ioos:station:wmo:42387:1,2015-11-09T05:30:00Z,28.2670,-88.3990,79.7,238.0,16.2,-11.5,'1111122,1111122,1111122' 
ADCP,ioos:station:wmo:42387:1,2015-11-09T06:30:00Z,28.2670,-88.3990,79.7,249.0,19.1,-14.5,'1111122,1111122,1111122' 
ADCP,ioos:station:wmo:42387:1,2015-11-09T07:30:00Z,28.2670,-88.3990,79.7,258.0,17.5,-14.3,'1111122,1111122,1111122' 
ADCP,ioos:station:wmo:42387:1,2015-11-09T08:30:00Z,28.2670,-88.3990,79.7,272.0,18.7,-15.8,'1111122,1111122,1111122' 
ADCP,ioos:station:wmo:42387:1,2015-11-09T09:30:00Z,28.2670,-88.3990,79.7,264.0,16.0,-13.3,'1111122,1111122,1111122' 
ADCP,ioos:station:wmo:42387:1,2015-11-09T10:30:00Z,28.2670,-88.3990,79.7,262.0,18.4,-11.9,'1111122,1111122,1111122' 
ADCP,ioos:station:wmo:42387:1,2015-11-09T11:30:00Z,28.2670,-88.3990,79.7,254.0,16.1,-11.1,'1111122,1111122,1111122' 
ADCP,ioos:station:wmo:42387:1,2015-11-09T12:30:00Z,28.2670,-88.3990,79.7,252.0,14.5,-9.7,'1111122,1111122,1111122' 
ADCP,ioos:station:wmo:42387:1,2015-11-09T13:30:00Z,28.2670,-88.3990,79.7,241.0,12.4,-9.5,'1111122,1111122,1111122' 
ADCP,ioos:station:wmo:42387:1,2015-11-09T14:30:00Z,28.2670,-88.3990,79.7,232.0,12.0,-7.8,'1111122,1111122,1111122' 
ADCP,ioos:station:wmo:42387:1,2015-11-09T15:30:00Z,28.2670,-88.3990,79.7,221.0,13.7,-7.0,'1111122,1111122,1111122' 
ADCP,ioos:station:wmo:42387:1,2015-11-09T16:30:00Z,28.2670,-88.3990,79.7,218.0,18.2,-6.5,'1111122,1111122,1111122' 
ADCP,ioos:station:wmo:42387:1,2015-11-09T17:30:00Z,28.2670,-88.3990,79.7,219.0,21.2,-7.1,'1111122,1111122,1111122' 
ADCP,ioos:station:wmo:42387:1,2015-11-09T18:50:00Z,28.2670,-88.3990,79.7,221.0,21.3,-6.7,'1111122,1111122,1111122' 
ADCP,ioos:station:wmo:42387:1,2015-11-09T19:30:00Z,28.2670,-88.3990,79.7,220.0,22.2,-7.9,'1111122,1111122,1111122' 
ADCP,ioos:station:wmo:42387:1,2015-11-09T20:30:00Z,28.2670,-88.3990,79.7,221.0,22.8,-8.8,'1111122,1111122,1111122' 